• In Czech Republic
  • List of Countries
  • For 7 days
  • Water Temperature
  • Satellite Maps
  • Weather Map
  • Weather Widgets
  • user-avatar
    Login

    Hourly Weather Kisumu

    Today, 22 June, Friday

    Time Temperature Precipitation Wind Pressure Humidity
    00:00 +19°C° 0 mm 1 mps 666 mmHg 88%
    01:00 +19°C° 0 mm 1 mps 666 mmHg 88%
    02:00 +19°C° 0 mm 1 mps 666 mmHg 88%
    03:00 +18°C° 0 mm 1 mps 665 mmHg 89%
    04:00 +18°C° 0 mm 1 mps 665 mmHg 89%
    05:00 +17°C° 0 mm 2 mps 665 mmHg 90%
    06:00 +19°C° 0 mm 1 mps 666 mmHg 84%
    07:00 +21°C° 0 mm 1 mps 667 mmHg 78%
    08:00 +24°C° 0 mm 1 mps 667 mmHg 70%
    09:00 +26°C° 0 mm 1 mps 667 mmHg 64%
    10:00 +28°C° 0 mm 1 mps 667 mmHg 57%
    11:00 +29°C° 0 mm 1 mps 668 mmHg 50%
    12:00 +29°C° 0.1 mm 1 mps 667 mmHg 50%
    13:00 +29°C° 0.1 mm 1 mps 666 mmHg 51%
    14:00 +29°C° 0 mm 2 mps 666 mmHg 54%
    15:00 +27°C° 0.6 mm 2 mps 666 mmHg 61%
    16:00 +26°C° 0.6 mm 1 mps 665 mmHg 69%
    17:00 +25°C° 0.6 mm 1 mps 665 mmHg 76%
    18:00 +24°C° 0.3 mm 1 mps 665 mmHg 79%
    19:00 +22°C° 0.3 mm 1 mps 665 mmHg 83%
    20:00 +21°C° 0.3 mm 1 mps 665 mmHg 87%
    21:00 +20°C° 0.4 mm 1 mps 665 mmHg 87%
    22:00 +20°C° 0.4 mm 1 mps 666 mmHg 87%
    23:00 +20°C° 0.4 mm 1 mps 666 mmHg 87%

    Tomorrow, 23 June, Saturday

    Time Temperature Precipitation Wind Pressure Humidity
    00:00 +19°C° 0 mm 1 mps 666 mmHg 87%
    01:00 +19°C° 0 mm 1 mps 665 mmHg 87%
    02:00 +19°C° 0 mm 1 mps 665 mmHg 88%
    03:00 +18°C° 0 mm 1 mps 665 mmHg 88%
    04:00 +18°C° 0 mm 1 mps 665 mmHg 89%
    05:00 +18°C° 0 mm 1 mps 665 mmHg 90%
    06:00 +20°C° 0 mm 1 mps 666 mmHg 84%
    07:00 +22°C° 0 mm 1 mps 666 mmHg 78%
    08:00 +23°C° 0 mm 1 mps 667 mmHg 72%
    09:00 +25°C° 0 mm 1 mps 667 mmHg 66%
    10:00 +27°C° 0 mm 1 mps 667 mmHg 59%
    11:00 +29°C° 0 mm 1 mps 667 mmHg 52%
    12:00 +29°C° 0.2 mm 1 mps 666 mmHg 55%
    13:00 +28°C° 0.2 mm 2 mps 666 mmHg 57%
    14:00 +28°C° 0.2 mm 2 mps 665 mmHg 60%
    15:00 +27°C° 0.7 mm 2 mps 665 mmHg 66%
    16:00 +26°C° 0.7 mm 2 mps 665 mmHg 72%
    17:00 +25°C° 0.7 mm 1 mps 664 mmHg 78%
    18:00 +24°C° 0.7 mm 1 mps 665 mmHg 81%
    19:00 +22°C° 0.7 mm 1 mps 665 mmHg 84%
    20:00 +21°C° 0.7 mm 1 mps 665 mmHg 87%
    21:00 +21°C° 0.5 mm 1 mps 665 mmHg 88%
    22:00 +21°C° 0.5 mm 1 mps 665 mmHg 88%
    23:00 +21°C° 0.5 mm 1 mps 665 mmHg 89%

    Day after tomorrow, 24 June, Sunday

    Time Temperature Precipitation Wind Pressure Humidity
    00:00 +20°C° 0.6 mm 1 mps 665 mmHg 89%
    01:00 +20°C° 0.6 mm 1 mps 665 mmHg 90%
    02:00 +20°C° 0.6 mm 1 mps 664 mmHg 91%
    03:00 +20°C° 0.1 mm 1 mps 664 mmHg 90%
    04:00 +19°C° 0.1 mm 2 mps 664 mmHg 90%
    05:00 +19°C° 0.1 mm 2 mps 664 mmHg 90%
    06:00 +20°C° 0 mm 2 mps 665 mmHg 85%
    07:00 +23°C° 0 mm 1 mps 666 mmHg 81%
    08:00 +24°C° 0 mm 1 mps 666 mmHg 76%
    09:00 +26°C° 0.4 mm 1 mps 666 mmHg 70%
    10:00 +27°C° 0.4 mm 1 mps 667 mmHg 63%
    11:00 +29°C° 0.4 mm 1 mps 667 mmHg 57%
    12:00 +29°C° 0.7 mm 1 mps 666 mmHg 59%
    13:00 +28°C° 0.7 mm 1 mps 666 mmHg 62%
    14:00 +28°C° 0.7 mm 1 mps 665 mmHg 64%
    15:00 +27°C° 0.9 mm 1 mps 665 mmHg 70%
    16:00 +26°C° 0.9 mm 1 mps 665 mmHg 75%
    17:00 +25°C° 0.9 mm 1 mps 664 mmHg 80%
    18:00 +23°C° 0.7 mm 1 mps 665 mmHg 83%
    19:00 +22°C° 0.7 mm 1 mps 665 mmHg 85%
    20:00 +21°C° 0.7 mm 1 mps 665 mmHg 88%
    21:00 +21°C° 1 mm 1 mps 665 mmHg 89%
    22:00 +21°C° 1 mm 1 mps 666 mmHg 90%
    23:00 +20°C° 1 mm 2 mps 666 mmHg 91%

    25 June, Monday

    Time Temperature Precipitation Wind Pressure Humidity
    00:00 +20°C° 0.9 mm 2 mps 665 mmHg 90%
    01:00 +20°C° 0.9 mm 2 mps 665 mmHg 90%
    02:00 +19°C° 0.9 mm 2 mps 664 mmHg 89%
    03:00 +19°C° 0.1 mm 2 mps 664 mmHg 89%
    04:00 +19°C° 0.1 mm 2 mps 664 mmHg 89%
    05:00 +19°C° 0.1 mm 2 mps 664 mmHg 89%
    06:00 +20°C° 0 mm 2 mps 665 mmHg 86%
    07:00 +21°C° 0 mm 2 mps 665 mmHg 83%
    08:00 +23°C° 0 mm 2 mps 666 mmHg 79%
    09:00 +25°C° 0.5 mm 2 mps 666 mmHg 71%
    10:00 +27°C° 0.5 mm 1 mps 666 mmHg 63%
    11:00 +29°C° 0.5 mm 1 mps 666 mmHg 55%
    12:00 +29°C° 0.5 mm 1 mps 666 mmHg 57%
    13:00 +28°C° 0.5 mm 1 mps 665 mmHg 60%
    14:00 +28°C° 0.5 mm 1 mps 664 mmHg 62%
    15:00 +27°C° 0.9 mm 1 mps 664 mmHg 68%
    16:00 +26°C° 0.9 mm 1 mps 664 mmHg 74%
    17:00 +25°C° 0.9 mm 1 mps 664 mmHg 80%
    18:00 +24°C° 1.3 mm 1 mps 664 mmHg 82%
    19:00 +23°C° 1.3 mm 1 mps 665 mmHg 84%
    20:00 +22°C° 1.3 mm 1 mps 665 mmHg 86%
    21:00 +21°C° 1 mm 1 mps 665 mmHg 87%
    22:00 +21°C° 1 mm 1 mps 665 mmHg 89%
    23:00 +21°C° 1 mm 1 mps 666 mmHg 90%

    26 June, Tuesday

    Time Temperature Precipitation Wind Pressure Humidity
    00:00 +21°C° 0.6 mm 1 mps 665 mmHg 90%
    01:00 +21°C° 0.6 mm 1 mps 664 mmHg 91%
    02:00 +20°C° 0.6 mm 1 mps 664 mmHg 91%
    03:00 +19°C° 0.3 mm 2 mps 664 mmHg 91%
    04:00 +19°C° 0.3 mm 2 mps 664 mmHg 90%
    05:00 +19°C° 0.3 mm 2 mps 664 mmHg 90%
    06:00 +20°C° 0.1 mm 2 mps 665 mmHg 86%
    07:00 +21°C° 0.1 mm 2 mps 665 mmHg 83%
    08:00 +21°C° 0.1 mm 2 mps 666 mmHg 80%
    09:00 +25°C° 0.1 mm 1 mps 666 mmHg 72%
    10:00 +27°C° 0.1 mm 1 mps 666 mmHg 63%
    11:00 +29°C° 0.1 mm 1 mps 666 mmHg 55%
    12:00 +29°C° 0.4 mm 1 mps 665 mmHg 56%
    13:00 +29°C° 0.4 mm 1 mps 665 mmHg 58%
    14:00 +28°C° 0.4 mm 1 mps 664 mmHg 59%
    15:00 +27°C° 0.5 mm 1 mps 664 mmHg 64%
    16:00 +26°C° 0.5 mm 1 mps 664 mmHg 70%
    17:00 +25°C° 0.5 mm 1 mps 663 mmHg 75%
    18:00 +24°C° 0.7 mm 1 mps 664 mmHg 77%
    19:00 +23°C° 0.7 mm 1 mps 664 mmHg 80%
    20:00 +22°C° 0.7 mm 1 mps 665 mmHg 82%
    21:00 +22°C° 0.5 mm 1 mps 665 mmHg 82%
    22:00 +22°C° 0.5 mm 1 mps 665 mmHg 82%
    23:00 +22°C° 0.5 mm 1 mps 665 mmHg 82%

    27 June, Wednesday

    Time Temperature Precipitation Wind Pressure Humidity
    00:00 +21°C° 0.2 mm 1 mps 665 mmHg 83%
    01:00 +21°C° 0.2 mm 1 mps 664 mmHg 85%
    02:00 +20°C° 0.2 mm 1 mps 664 mmHg 86%
    03:00 +20°C° 0 mm 1 mps 664 mmHg 86%
    04:00 +20°C° 0 mm 1 mps 664 mmHg 85%
    05:00 +19°C° 0 mm 2 mps 665 mmHg 85%
    06:00 +20°C° 0 mm 2 mps 665 mmHg 81%
    07:00 +21°C° 0 mm 2 mps 666 mmHg 77%
    08:00 +23°C° 0 mm 1 mps 666 mmHg 74%
    09:00 +25°C° 0.2 mm 1 mps 666 mmHg 69%
    10:00 +26°C° 0.2 mm 1 mps 666 mmHg 64%
    11:00 +28°C° 0.2 mm 1 mps 666 mmHg 59%
    12:00 +28°C° 0.3 mm 1 mps 665 mmHg 56%
    13:00 +29°C° 0.3 mm 1 mps 665 mmHg 54%
    14:00 +29°C° 0.3 mm 1 mps 664 mmHg 52%
    15:00 +28°C° 0.4 mm 1 mps 664 mmHg 59%
    16:00 +27°C° 0.4 mm 1 mps 664 mmHg 66%
    17:00 +25°C° 0.4 mm 2 mps 664 mmHg 73%
    18:00 +24°C° 1.2 mm 2 mps 664 mmHg 77%
    19:00 +23°C° 1.2 mm 1 mps 664 mmHg 81%
    20:00 +22°C° 1.2 mm 1 mps 665 mmHg 85%
    21:00 +22°C° 1.4 mm 1 mps 665 mmHg 86%
    22:00 +21°C° 1.4 mm 1 mps 665 mmHg 87%
    23:00 +21°C° 1.4 mm 1 mps 665 mmHg 88%
    Show more